Time,TemperatureF,DewpointF,PressureIn,WindDirection,WindDirectionDegrees,WindSpeedMPH,WindSpeedGustMPH,Humidity,HourlyPrecipIn,Conditions,Clouds,dailyrainin,SoftwareType,DateUTC
2013-02-14 00:00:00,31.3,22.8,29.72,NNW,327,0.0,-999.0,70,-99.99,,,-99.99,custom,2013-02-14 05:00:00,
2013-02-14 00:05:00,32.0,25.3,29.73,NE,49,0.0,-999.0,76,-99.99,,,-99.99,custom,2013-02-14 05:05:00,
2013-02-14 00:10:00,32.5,27.0,29.73,East,83,0.0,-999.0,79,-99.99,,,-99.99,custom,2013-02-14 05:10:00,
2013-02-14 00:15:00,32.2,26.1,29.75,SW,235,0.0,-999.0,77,-99.99,,,-99.99,custom,2013-02-14 05:15:00,
2013-02-14 00:20:00,32.0,27.0,29.77,ENE,76,0.0,-999.0,81,-99.99,,,-99.99,custom,2013-02-14 05:20:00,
2013-02-14 00:25:00,33.4,24.6,29.76,SE,142,1.0,-999.0,69,-99.99,,,-99.99,custom,2013-02-14 05:25:00,
2013-02-14 00:30:00,34.0,26.8,29.75,SE,140,1.0,-999.0,74,-99.99,,,-99.99,custom,2013-02-14 05:30:00,
2013-02-14 00:35:00,33.8,27.9,29.75,SE,126,0.0,-999.0,78,-99.99,,,-99.99,custom,2013-02-14 05:35:00,
2013-02-14 00:40:00,33.3,27.5,29.75,SSE,163,0.0,-999.0,79,-99.99,,,-99.99,custom,2013-02-14 05:40:00,
2013-02-14 00:45:00,33.1,25.9,29.78,South,173,0.0,-999.0,74,-99.99,,,-99.99,custom,2013-02-14 05:45:00,
2013-02-14 00:50:00,33.4,25.3,29.76,East,97,0.0,-999.0,71,-99.99,,,-99.99,custom,2013-02-14 05:50:00,
2013-02-14 00:55:00,34.5,27.0,29.76,SE,145,1.0,-999.0,73,-99.99,,,-99.99,custom,2013-02-14 05:55:00,
2013-02-14 01:00:00,33.8,26.8,29.77,South,181,1.0,-999.0,74,-99.99,,,-99.99,custom,2013-02-14 06:00:00,
2013-02-14 01:05:00,32.7,27.1,29.78,North,350,0.0,-999.0,79,-99.99,,,-99.99,custom,2013-02-14 06:05:00,
2013-02-14 01:10:00,32.0,25.2,29.75,NNW,340,0.0,-999.0,75,-99.99,,,-99.99,custom,2013-02-14 06:10:00,
2013-02-14 01:15:00,32.0,25.9,29.75,NE,52,0.0,-999.0,77,-99.99,,,-99.99,custom,2013-02-14 06:15:00,
2013-02-14 01:20:00,33.3,27.0,29.76,NE,40,0.0,-999.0,77,-99.99,,,-99.99,custom,2013-02-14 06:20:00,
2013-02-14 01:25:00,33.3,25.5,29.75,NE,36,0.0,-999.0,72,-99.99,,,-99.99,custom,2013-02-14 06:25:00,
2013-02-14 01:30:00,32.9,25.7,29.74,North,353,1.0,-999.0,74,-99.99,,,-99.99,custom,2013-02-14 06:30:00,
2013-02-14 01:35:00,32.2,26.2,29.75,NNW,345,0.0,-999.0,78,-99.99,,,-99.99,custom,2013-02-14 06:35:00,
2013-02-14 01:40:00,31.5,22.8,29.74,NNW,336,1.0,-999.0,69,-99.99,,,-99.99,custom,2013-02-14 06:40:00,
2013-02-14 01:45:00,31.5,24.6,29.74,North,1,0.0,-999.0,75,-99.99,,,-99.99,custom,2013-02-14 06:45:00,
2013-02-14 01:50:00,31.5,23.2,29.74,NNW,346,1.0,-999.0,70,-99.99,,,-99.99,custom,2013-02-14 06:50:00,
2013-02-14 01:55:00,31.5,24.4,29.73,North,353,0.0,-999.0,74,-99.99,,,-99.99,custom,2013-02-14 06:55:00,
2013-02-14 02:00:00,31.5,23.9,29.73,NNE,25,0.0,-999.0,72,-99.99,,,-99.99,custom,2013-02-14 07:00:00,
2013-02-14 02:05:00,31.6,24.6,29.75,NNE,25,0.0,-999.0,74,-99.99,,,-99.99,custom,2013-02-14 07:05:00,
2013-02-14 02:10:00,31.6,23.4,29.72,North,0,0.0,-999.0,70,-99.99,,,-99.99,custom,2013-02-14 07:10:00,
2013-02-14 02:15:00,31.1,21.9,29.73,North,353,1.0,-999.0,68,-99.99,,,-99.99,custom,2013-02-14 07:15:00,
2013-02-14 02:20:00,31.1,23.9,29.70,North,4,0.0,-999.0,73,-99.99,,,-99.99,custom,2013-02-14 07:20:00,
2013-02-14 02:25:00,31.8,24.8,29.71,ENE,72,1.0,-999.0,74,-99.99,,,-99.99,custom,2013-02-14 07:25:00,
2013-02-14 02:30:00,32.0,25.0,29.75,NNW,345,0.0,-999.0,74,-99.99,,,-99.99,custom,2013-02-14 07:30:00,
2013-02-14 02:35:00,31.5,22.6,29.77,North,353,0.0,-999.0,69,-99.99,,,-99.99,custom,2013-02-14 07:35:00,
2013-02-14 02:40:00,31.1,23.2,29.70,North,358,1.0,-999.0,72,-99.99,,,-99.99,custom,2013-02-14 07:40:00,
2013-02-14 02:45:00,30.6,21.0,29.72,North,9,1.0,-999.0,67,-99.99,,,-99.99,custom,2013-02-14 07:45:00,
2013-02-14 02:50:00,30.9,23.5,29.75,NE,44,1.0,-999.0,73,-99.99,,,-99.99,custom,2013-02-14 07:50:00,
2013-02-14 02:55:00,31.1,23.2,29.73,North,6,1.0,-999.0,71,-99.99,,,-99.99,custom,2013-02-14 07:55:00,
2013-02-14 03:00:00,30.7,23.4,29.75,ENE,65,0.0,-999.0,73,-99.99,,,-99.99,custom,2013-02-14 08:00:00,
2013-02-14 03:05:00,31.3,23.4,29.76,North,9,1.0,-999.0,72,-99.99,,,-99.99,custom,2013-02-14 08:05:00,
2013-02-14 03:10:00,31.3,23.7,29.79,NNE,26,0.0,-999.0,72,-99.99,,,-99.99,custom,2013-02-14 08:10:00,
2013-02-14 03:15:00,31.3,21.9,29.77,North,3,2.0,-999.0,67,-99.99,,,-99.99,custom,2013-02-14 08:15:00,
2013-02-14 03:20:00,31.1,23.5,29.77,NNE,12,2.0,-999.0,73,-99.99,,,-99.99,custom,2013-02-14 08:20:00,
2013-02-14 03:25:00,31.3,22.5,29.77,North,7,2.0,-999.0,69,-99.99,,,-99.99,custom,2013-02-14 08:25:00,
2013-02-14 03:30:00,30.6,22.1,29.76,NNW,340,1.0,-999.0,70,-99.99,,,-99.99,custom,2013-02-14 08:30:00,
2013-02-14 03:35:00,30.6,23.4,29.80,NNW,346,3.0,-999.0,73,-99.99,,,-99.99,custom,2013-02-14 08:35:00,
2013-02-14 03:40:00,30.7,22.8,29.78,NNE,13,1.0,-999.0,71,-99.99,,,-99.99,custom,2013-02-14 08:40:00,
2013-02-14 03:45:00,30.2,22.5,29.80,North,351,1.0,-999.0,72,-99.99,,,-99.99,custom,2013-02-14 08:45:00,
2013-02-14 03:50:00,30.2,22.5,29.79,North,353,2.0,-999.0,72,-99.99,,,-99.99,custom,2013-02-14 08:50:00,
2013-02-14 03:55:00,30.0,21.2,29.78,NNE,33,2.0,-999.0,69,-99.99,,,-99.99,custom,2013-02-14 08:55:00,
2013-02-14 04:00:00,30.0,23.4,29.79,NNE,21,1.0,-999.0,75,-99.99,,,-99.99,custom,2013-02-14 09:00:00,
2013-02-14 04:05:00,30.0,21.7,29.78,North,3,2.0,-999.0,70,-99.99,,,-99.99,custom,2013-02-14 09:05:00,
2013-02-14 04:10:00,30.2,21.4,29.80,North,5,3.0,-999.0,68,-99.99,,,-99.99,custom,2013-02-14 09:10:00,
2013-02-14 04:15:00,30.0,22.5,29.81,NNW,344,2.0,-999.0,73,-99.99,,,-99.99,custom,2013-02-14 09:15:00,
2013-02-14 04:20:00,30.2,22.5,29.82,North,1,1.0,-999.0,72,-99.99,,,-99.99,custom,2013-02-14 09:20:00,
2013-02-14 04:25:00,29.8,20.8,29.80,North,359,3.0,-999.0,68,-99.99,,,-99.99,custom,2013-02-14 09:25:00,
2013-02-14 04:30:00,30.0,20.8,29.80,North,358,2.0,-999.0,68,-99.99,,,-99.99,custom,2013-02-14 09:30:00,
2013-02-14 04:35:00,29.3,20.8,29.79,NNW,345,2.0,-999.0,70,-99.99,,,-99.99,custom,2013-02-14 09:35:00,
2013-02-14 04:40:00,29.5,21.9,29.80,NNW,345,2.0,-999.0,72,-99.99,,,-99.99,custom,2013-02-14 09:40:00,
2013-02-14 04:45:00,29.3,21.4,29.82,NNW,342,3.0,-999.0,71,-99.99,,,-99.99,custom,2013-02-14 09:45:00,
2013-02-14 04:50:00,29.1,22.5,29.80,NNW,343,2.0,-999.0,75,-99.99,,,-99.99,custom,2013-02-14 09:50:00,
2013-02-14 04:55:00,28.9,21.9,29.80,NNE,15,2.0,-999.0,74,-99.99,,,-99.99,custom,2013-02-14 09:55:00,
2013-02-14 05:00:00,28.9,21.4,29.80,NNE,20,1.0,-999.0,72,-99.99,,,-99.99,custom,2013-02-14 10:00:00,
2013-02-14 05:05:00,28.9,21.2,29.81,NNW,344,2.0,-999.0,72,-99.99,,,-99.99,custom,2013-02-14 10:05:00,
2013-02-14 05:10:00,28.8,20.1,29.80,North,353,4.0,-999.0,69,-99.99,,,-99.99,custom,2013-02-14 10:10:00,
2013-02-14 05:15:00,28.6,22.3,29.80,NNE,16,1.0,-999.0,76,-99.99,,,-99.99,custom,2013-02-14 10:15:00,
2013-02-14 05:20:00,28.2,20.3,29.79,NNW,336,2.0,-999.0,71,-99.99,,,-99.99,custom,2013-02-14 10:20:00,
2013-02-14 05:25:00,28.4,22.3,29.79,NNW,328,1.0,-999.0,77,-99.99,,,-99.99,custom,2013-02-14 10:25:00,
2013-02-14 05:31:00,27.9,20.7,29.80,North,5,1.0,-999.0,73,-99.99,,,-99.99,custom,2013-02-14 10:31:00,
2013-02-14 05:36:00,27.9,21.0,29.80,North,6,1.0,-999.0,75,-99.99,,,-99.99,custom,2013-02-14 10:36:00,
2013-02-14 05:41:00,27.9,20.5,29.80,NNW,344,1.0,-999.0,73,-99.99,,,-99.99,custom,2013-02-14 10:41:00,
2013-02-14 05:46:00,27.3,20.1,29.83,NNW,348,2.0,-999.0,73,-99.99,,,-99.99,custom,2013-02-14 10:46:00,
2013-02-14 05:51:00,27.7,20.5,29.83,NNE,20,2.0,-999.0,73,-99.99,,,-99.99,custom,2013-02-14 10:51:00,
2013-02-14 05:56:00,27.3,19.8,29.78,North,355,2.0,-999.0,72,-99.99,,,-99.99,custom,2013-02-14 10:56:00,
2013-02-14 06:01:00,27.3,20.8,29.82,NNE,27,2.0,-999.0,76,-99.99,,,-99.99,custom,2013-02-14 11:01:00,
2013-02-14 06:05:00,27.3,20.3,29.83,North,353,1.0,-999.0,74,-99.99,,,-99.99,custom,2013-02-14 11:05:00,
2013-02-14 06:11:00,27.3,21.7,29.81,NNE,19,1.0,-999.0,79,-99.99,,,-99.99,custom,2013-02-14 11:11:00,
2013-02-14 06:15:00,27.3,20.8,29.83,NNE,23,1.0,-999.0,76,-99.99,,,-99.99,custom,2013-02-14 11:15:00,
2013-02-14 06:20:00,27.0,21.0,29.86,North,358,1.0,-999.0,77,-99.99,,,-99.99,custom,2013-02-14 11:20:00,
2013-02-14 06:25:00,26.8,20.8,29.84,NNE,18,1.0,-999.0,77,-99.99,,,-99.99,custom,2013-02-14 11:25:00,
2013-02-14 06:30:00,27.0,20.5,29.80,NNE,18,1.0,-999.0,75,-99.99,,,-99.99,custom,2013-02-14 11:30:00,
2013-02-14 06:35:00,27.7,21.4,29.80,NNE,32,2.0,-999.0,76,-99.99,,,-99.99,custom,2013-02-14 11:35:00,
2013-02-14 06:40:00,26.8,21.9,29.81,NE,49,1.0,-999.0,81,-99.99,,,-99.99,custom,2013-02-14 11:40:00,
2013-02-14 06:45:00,26.8,21.0,29.84,NE,43,0.0,-999.0,78,-99.99,,,-99.99,custom,2013-02-14 11:45:00,
2013-02-14 06:50:00,27.3,20.8,29.82,ENE,65,1.0,-999.0,75,-99.99,,,-99.99,custom,2013-02-14 11:50:00,
2013-02-14 06:55:00,26.8,21.2,29.82,NNW,343,0.0,-999.0,78,-99.99,,,-99.99,custom,2013-02-14 11:55:00,
2013-02-14 07:00:00,26.8,21.0,29.80,NE,54,1.0,-999.0,78,-99.99,,,-99.99,custom,2013-02-14 12:00:00,
2013-02-14 07:06:00,26.6,21.0,29.85,North,7,1.0,-999.0,79,-99.99,,,-99.99,custom,2013-02-14 12:06:00,
2013-02-14 07:11:00,26.2,19.8,29.82,NW,323,1.0,-999.0,75,-99.99,,,-99.99,custom,2013-02-14 12:11:00,
2013-02-14 07:16:00,26.6,21.4,29.83,NW,324,0.0,-999.0,79,-99.99,,,-99.99,custom,2013-02-14 12:16:00,
2013-02-14 07:21:00,26.8,19.4,29.83,North,0,2.0,-999.0,72,-99.99,,,-99.99,custom,2013-02-14 12:21:00,
2013-02-14 07:26:00,27.7,21.7,29.83,ENE,65,1.0,-999.0,77,-99.99,,,-99.99,custom,2013-02-14 12:26:00,
2013-02-14 07:31:00,28.6,22.1,29.85,ENE,75,1.0,-999.0,76,-99.99,,,-99.99,custom,2013-02-14 12:31:00,
2013-02-14 07:36:00,28.9,23.4,29.85,WSW,249,0.0,-999.0,78,-99.99,,,-99.99,custom,2013-02-14 12:36:00,
2013-02-14 07:41:00,29.8,23.5,29.87,ENE,62,1.0,-999.0,77,-99.99,,,-99.99,custom,2013-02-14 12:41:00,
2013-02-14 07:46:00,30.4,20.5,29.87,North,2,1.0,-999.0,65,-99.99,,,-99.99,custom,2013-02-14 12:46:00,
2013-02-14 07:51:00,30.0,20.7,29.87,NW,305,2.0,-999.0,67,-99.99,,,-99.99,custom,2013-02-14 12:51:00,
2013-02-14 07:56:00,30.7,22.1,29.86,NNW,341,1.0,-999.0,69,-99.99,,,-99.99,custom,2013-02-14 12:56:00,
2013-02-14 08:01:00,30.6,19.8,29.85,WNW,301,2.0,-999.0,63,-99.99,,,-99.99,custom,2013-02-14 13:01:00,
2013-02-14 08:06:00,31.1,19.4,29.87,NNW,339,3.0,-999.0,61,-99.99,,,-99.99,custom,2013-02-14 13:06:00,
2013-02-14 08:11:00,31.1,19.6,29.86,North,0,2.0,-999.0,61,-99.99,,,-99.99,custom,2013-02-14 13:11:00,
2013-02-14 08:16:00,31.5,21.4,29.88,NW,313,0.0,-999.0,65,-99.99,,,-99.99,custom,2013-02-14 13:16:00,
2013-02-14 08:21:00,31.5,19.2,29.88,NNW,330,4.0,-999.0,59,-99.99,,,-99.99,custom,2013-02-14 13:21:00,
2013-02-14 08:26:00,32.2,22.8,29.86,NNE,20,0.0,-999.0,67,-99.99,,,-99.99,custom,2013-02-14 13:26:00,
2013-02-14 08:31:00,32.5,21.2,29.87,North,356,1.0,-999.0,62,-99.99,,,-99.99,custom,2013-02-14 13:31:00,
2013-02-14 08:36:00,32.4,22.1,29.88,North,1,2.0,-999.0,65,-99.99,,,-99.99,custom,2013-02-14 13:36:00,
2013-02-14 08:41:00,32.2,20.7,29.87,NW,312,4.0,-999.0,61,-99.99,,,-99.99,custom,2013-02-14 13:41:00,
2013-02-14 08:46:00,33.3,22.3,29.91,NW,318,3.0,-999.0,63,-99.99,,,-99.99,custom,2013-02-14 13:46:00,
2013-02-14 08:51:00,32.9,21.7,29.87,NNW,333,1.0,-999.0,62,-99.99,,,-99.99,custom,2013-02-14 13:51:00,
2013-02-14 08:56:00,33.8,22.5,29.88,NE,42,1.0,-999.0,62,-99.99,,,-99.99,custom,2013-02-14 13:56:00,
2013-02-14 09:01:00,34.7,23.4,29.91,NW,323,3.0,-999.0,62,-99.99,,,-99.99,custom,2013-02-14 14:01:00,
2013-02-14 09:06:00,33.8,21.9,29.89,WNW,301,2.0,-999.0,61,-99.99,,,-99.99,custom,2013-02-14 14:06:00,
2013-02-14 09:11:00,34.3,20.8,29.87,North,352,2.0,-999.0,57,-99.99,,,-99.99,custom,2013-02-14 14:11:00,
2013-02-14 09:16:00,34.9,21.0,29.89,NNE,19,1.0,-999.0,56,-99.99,,,-99.99,custom,2013-02-14 14:16:00,
2013-02-14 09:21:00,35.8,21.6,29.92,North,356,2.0,-999.0,55,-99.99,,,-99.99,custom,2013-02-14 14:21:00,
2013-02-14 09:26:00,36.1,23.0,29.88,North,354,1.0,-999.0,58,-99.99,,,-99.99,custom,2013-02-14 14:26:00,
2013-02-14 09:31:00,37.4,23.9,29.91,NNW,337,2.0,-999.0,57,-99.99,,,-99.99,custom,2013-02-14 14:31:00,
2013-02-14 09:36:00,37.0,21.9,29.90,NNW,344,2.0,-999.0,53,-99.99,,,-99.99,custom,2013-02-14 14:36:00,
2013-02-14 09:41:00,37.8,22.3,29.92,NNW,347,4.0,-999.0,53,-99.99,,,-99.99,custom,2013-02-14 14:41:00,
2013-02-14 09:46:00,37.4,22.5,29.91,NNE,16,3.0,-999.0,54,-99.99,,,-99.99,custom,2013-02-14 14:46:00,
2013-02-14 09:51:00,37.2,22.8,29.91,NW,324,4.0,-999.0,55,-99.99,,,-99.99,custom,2013-02-14 14:51:00,
2013-02-14 09:56:00,37.2,22.3,29.90,NW,312,2.0,-999.0,54,-99.99,,,-99.99,custom,2013-02-14 14:56:00,
2013-02-14 10:01:00,37.2,22.5,29.92,NNW,345,2.0,-999.0,54,-99.99,,,-99.99,custom,2013-02-14 15:01:00,
2013-02-14 10:06:00,39.0,22.8,29.90,North,11,3.0,-999.0,51,-99.99,,,-99.99,custom,2013-02-14 15:06:00,
2013-02-14 10:11:00,38.8,24.8,29.91,NNW,334,2.0,-999.0,56,-99.99,,,-99.99,custom,2013-02-14 15:11:00,
2013-02-14 10:16:00,39.6,22.3,29.90,NW,319,4.0,-999.0,49,-99.99,,,-99.99,custom,2013-02-14 15:16:00,
2013-02-14 10:21:00,39.6,24.3,29.91,West,275,1.0,-999.0,53,-99.99,,,-99.99,custom,2013-02-14 15:21:00,
2013-02-14 10:26:00,41.4,24.1,29.89,North,3,3.0,-999.0,49,-99.99,,,-99.99,custom,2013-02-14 15:26:00,
2013-02-14 10:31:00,37.8,20.8,29.91,North,355,10.0,-999.0,49,-99.99,,,-99.99,custom,2013-02-14 15:31:00,
2013-02-14 10:36:00,37.8,22.6,29.90,North,354,6.0,-999.0,53,-99.99,,,-99.99,custom,2013-02-14 15:36:00,
2013-02-14 10:41:00,37.4,22.1,29.90,West,267,4.0,-999.0,53,-99.99,,,-99.99,custom,2013-02-14 15:41:00,
2013-02-14 10:46:00,37.6,21.2,29.93,NW,314,4.0,-999.0,51,-99.99,,,-99.99,custom,2013-02-14 15:46:00,
2013-02-14 10:51:00,38.3,21.7,29.90,NW,321,6.0,-999.0,50,-99.99,,,-99.99,custom,2013-02-14 15:51:00,
2013-02-14 10:56:00,37.8,23.2,29.90,West,269,5.0,-999.0,55,-99.99,,,-99.99,custom,2013-02-14 15:56:00,
2013-02-14 11:01:00,39.4,23.0,29.91,NNE,16,5.0,-999.0,51,-99.99,,,-99.99,custom,2013-02-14 16:01:00,
2013-02-14 11:06:00,39.6,23.0,29.87,NNW,346,4.0,-999.0,50,-99.99,,,-99.99,custom,2013-02-14 16:06:00,
2013-02-14 11:11:00,41.2,24.8,29.91,North,350,1.0,-999.0,51,-99.99,,,-99.99,custom,2013-02-14 16:11:00,
2013-02-14 11:16:00,39.2,21.7,29.88,NNW,341,5.0,-999.0,48,-99.99,,,-99.99,custom,2013-02-14 16:16:00,
2013-02-14 11:21:00,40.6,23.9,29.91,NW,324,5.0,-999.0,50,-99.99,,,-99.99,custom,2013-02-14 16:21:00,
2013-02-14 11:26:00,39.2,21.9,29.91,NW,304,5.0,-999.0,49,-99.99,,,-99.99,custom,2013-02-14 16:26:00,
2013-02-14 11:31:00,38.1,21.9,29.91,West,270,5.0,-999.0,51,-99.99,,,-99.99,custom,2013-02-14 16:31:00,
2013-02-14 11:36:00,40.6,23.0,29.89,NNE,27,4.0,-999.0,48,-99.99,,,-99.99,custom,2013-02-14 16:36:00,
2013-02-14 11:41:00,41.4,23.4,29.90,North,354,3.0,-999.0,48,-99.99,,,-99.99,custom,2013-02-14 16:41:00,
2013-02-14 11:46:00,40.1,22.6,29.88,North,350,6.0,-999.0,49,-99.99,,,-99.99,custom,2013-02-14 16:46:00,
2013-02-14 11:51:00,41.4,26.6,29.90,WSW,256,1.0,-999.0,55,-99.99,,,-99.99,custom,2013-02-14 16:51:00,
2013-02-14 11:56:00,40.3,23.0,29.88,WNW,296,4.0,-999.0,49,-99.99,,,-99.99,custom,2013-02-14 16:56:00,
2013-02-14 12:01:00,41.0,22.6,29.91,NNE,31,1.0,-999.0,47,-99.99,,,-99.99,custom,2013-02-14 17:01:00,
2013-02-14 12:06:00,41.7,24.8,29.89,North,7,2.0,-999.0,50,-99.99,,,-99.99,custom,2013-02-14 17:06:00,
2013-02-14 12:11:00,40.5,20.5,29.90,NW,308,3.0,-999.0,44,-99.99,,,-99.99,custom,2013-02-14 17:11:00,
2013-02-14 12:16:00,42.8,24.4,29.88,NNW,328,2.0,-999.0,47,-99.99,,,-99.99,custom,2013-02-14 17:16:00,
2013-02-14 12:21:00,41.4,23.0,29.89,North,353,1.0,-999.0,47,-99.99,,,-99.99,custom,2013-02-14 17:21:00,
2013-02-14 12:26:00,42.8,25.0,29.90,SSE,152,1.0,-999.0,49,-99.99,,,-99.99,custom,2013-02-14 17:26:00,
2013-02-14 12:31:00,44.1,23.4,29.89,NE,36,3.0,-999.0,43,-99.99,,,-99.99,custom,2013-02-14 17:31:00,
2013-02-14 12:36:00,44.6,26.6,29.90,NNE,17,3.0,-999.0,48,-99.99,,,-99.99,custom,2013-02-14 17:36:00,
2013-02-14 12:41:00,45.0,30.9,29.88,SSE,159,0.0,-999.0,57,-99.99,,,-99.99,custom,2013-02-14 17:41:00,
2013-02-14 12:46:00,42.3,21.9,29.91,North,354,4.0,-999.0,43,-99.99,,,-99.99,custom,2013-02-14 17:46:00,
2013-02-14 12:51:00,43.2,25.0,29.88,NNW,331,6.0,-999.0,48,-99.99,,,-99.99,custom,2013-02-14 17:51:00,
2013-02-14 12:56:00,44.1,25.9,29.88,SW,232,4.0,-999.0,48,-99.99,,,-99.99,custom,2013-02-14 17:56:00,
2013-02-14 13:01:00,43.0,24.4,29.88,NNW,345,1.0,-999.0,47,-99.99,,,-99.99,custom,2013-02-14 18:01:00,
2013-02-14 13:06:00,42.4,22.1,29.91,NNW,337,4.0,-999.0,43,-99.99,,,-99.99,custom,2013-02-14 18:06:00,
2013-02-14 13:11:00,42.3,24.8,29.89,SW,214,3.0,-999.0,49,-99.99,,,-99.99,custom,2013-02-14 18:11:00,
2013-02-14 13:16:00,43.3,25.0,29.91,SSW,193,1.0,-999.0,47,-99.99,,,-99.99,custom,2013-02-14 18:16:00,
2013-02-14 13:21:00,45.0,26.2,29.88,SSW,202,1.0,-999.0,47,-99.99,,,-99.99,custom,2013-02-14 18:21:00,
2013-02-14 13:26:00,45.0,25.5,29.87,SSW,208,3.0,-999.0,45,-99.99,,,-99.99,custom,2013-02-14 18:26:00,
2013-02-14 13:31:00,46.0,26.6,29.89,South,184,1.0,-999.0,46,-99.99,,,-99.99,custom,2013-02-14 18:31:00,
2013-02-14 13:36:00,45.9,26.6,29.91,SW,230,2.0,-999.0,46,-99.99,,,-99.99,custom,2013-02-14 18:36:00,
2013-02-14 13:41:00,45.3,25.2,29.88,WSW,250,1.0,-999.0,44,-99.99,,,-99.99,custom,2013-02-14 18:41:00,
2013-02-14 13:46:00,47.5,26.4,29.87,SSE,159,4.0,-999.0,43,-99.99,,,-99.99,custom,2013-02-14 18:46:00,
2013-02-14 13:51:00,45.9,25.5,29.87,SW,218,4.0,-999.0,44,-99.99,,,-99.99,custom,2013-02-14 18:51:00,
2013-02-14 13:56:00,43.7,24.3,29.89,WSW,243,7.0,-999.0,45,-99.99,,,-99.99,custom,2013-02-14 18:56:00,
2013-02-14 14:01:00,43.5,22.6,29.87,NW,315,5.0,-999.0,43,-99.99,,,-99.99,custom,2013-02-14 19:01:00,
2013-02-14 14:06:00,43.0,23.7,29.90,WNW,296,1.0,-999.0,46,-99.99,,,-99.99,custom,2013-02-14 19:06:00,
2013-02-14 14:11:00,44.8,25.2,29.88,West,280,2.0,-999.0,45,-99.99,,,-99.99,custom,2013-02-14 19:11:00,
2013-02-14 14:16:00,43.9,24.4,29.90,WSW,255,4.0,-999.0,45,-99.99,,,-99.99,custom,2013-02-14 19:16:00,
2013-02-14 14:21:00,45.1,27.3,29.92,West,271,1.0,-999.0,49,-99.99,,,-99.99,custom,2013-02-14 19:21:00,
2013-02-14 14:26:00,43.0,24.1,29.88,West,276,1.0,-999.0,46,-99.99,,,-99.99,custom,2013-02-14 19:26:00,
2013-02-14 14:31:00,45.3,25.9,29.92,SW,220,3.0,-999.0,46,-99.99,,,-99.99,custom,2013-02-14 19:31:00,
2013-02-14 14:36:00,45.5,26.4,29.88,SW,217,3.0,-999.0,46,-99.99,,,-99.99,custom,2013-02-14 19:36:00,
2013-02-14 14:41:00,43.5,23.2,29.88,West,281,5.0,-999.0,44,-99.99,,,-99.99,custom,2013-02-14 19:41:00,
2013-02-14 14:46:00,44.8,26.8,29.90,South,173,1.0,-999.0,48,-99.99,,,-99.99,custom,2013-02-14 19:46:00,
2013-02-14 14:51:00,45.0,23.4,29.90,SSW,208,7.0,-999.0,41,-99.99,,,-99.99,custom,2013-02-14 19:51:00,
2013-02-14 14:56:00,44.4,23.0,29.90,SSW,211,7.0,-999.0,42,-99.99,,,-99.99,custom,2013-02-14 19:56:00,
2013-02-14 15:01:00,44.4,25.2,29.92,SSW,210,3.0,-999.0,46,-99.99,,,-99.99,custom,2013-02-14 20:01:00,
2013-02-14 15:06:00,44.2,24.8,29.88,WNW,282,2.0,-999.0,45,-99.99,,,-99.99,custom,2013-02-14 20:06:00,
2013-02-14 15:11:00,45.5,27.3,29.90,West,270,2.0,-999.0,48,-99.99,,,-99.99,custom,2013-02-14 20:11:00,
2013-02-14 15:16:00,45.5,24.4,29.91,NW,321,4.0,-999.0,43,-99.99,,,-99.99,custom,2013-02-14 20:16:00,
2013-02-14 15:21:00,45.1,25.7,29.91,NNW,332,3.0,-999.0,45,-99.99,,,-99.99,custom,2013-02-14 20:21:00,
2013-02-14 15:26:00,44.4,24.3,29.92,West,269,2.0,-999.0,44,-99.99,,,-99.99,custom,2013-02-14 20:26:00,
2013-02-14 15:31:00,44.6,25.3,29.90,West,262,3.0,-999.0,46,-99.99,,,-99.99,custom,2013-02-14 20:31:00,
2013-02-14 15:36:00,47.1,29.1,29.92,SSW,193,2.0,-999.0,49,-99.99,,,-99.99,custom,2013-02-14 20:36:00,
2013-02-14 15:41:00,50.4,31.6,29.91,SE,132,0.0,-999.0,48,-99.99,,,-99.99,custom,2013-02-14 20:41:00,
2013-02-14 15:46:00,49.1,28.2,29.91,WSW,248,1.0,-999.0,44,-99.99,,,-99.99,custom,2013-02-14 20:46:00,
2013-02-14 15:51:00,48.2,27.3,29.88,WSW,246,2.0,-999.0,43,-99.99,,,-99.99,custom,2013-02-14 20:51:00,
2013-02-14 15:56:00,46.2,24.8,29.92,South,191,4.0,-999.0,42,-99.99,,,-99.99,custom,2013-02-14 20:56:00,
2013-02-14 16:01:00,45.3,23.0,29.93,SSW,209,6.0,-999.0,40,-99.99,,,-99.99,custom,2013-02-14 21:01:00,
2013-02-14 16:06:00,44.8,23.9,29.91,SSW,209,5.0,-999.0,43,-99.99,,,-99.99,custom,2013-02-14 21:06:00,
2013-02-14 16:11:00,44.8,24.8,29.91,SW,215,3.0,-999.0,44,-99.99,,,-99.99,custom,2013-02-14 21:11:00,
2013-02-14 16:16:00,44.8,25.2,29.93,SSW,201,3.0,-999.0,45,-99.99,,,-99.99,custom,2013-02-14 21:16:00,
2013-02-14 16:21:00,44.6,26.2,29.94,SSW,205,1.0,-999.0,47,-99.99,,,-99.99,custom,2013-02-14 21:21:00,
2013-02-14 16:26:00,44.4,28.0,29.90,SSW,197,3.0,-999.0,52,-99.99,,,-99.99,custom,2013-02-14 21:26:00,
2013-02-14 16:31:00,44.4,26.2,29.93,WSW,237,1.0,-999.0,48,-99.99,,,-99.99,custom,2013-02-14 21:31:00,
2013-02-14 16:36:00,44.4,27.0,29.96,SSW,192,2.0,-999.0,50,-99.99,,,-99.99,custom,2013-02-14 21:36:00,
2013-02-14 16:41:00,44.1,29.3,29.91,ENE,58,0.0,-999.0,55,-99.99,,,-99.99,custom,2013-02-14 21:41:00,
2013-02-14 16:46:00,44.4,27.5,29.95,South,185,1.0,-999.0,51,-99.99,,,-99.99,custom,2013-02-14 21:46:00,
2013-02-14 16:51:00,42.8,24.4,29.94,South,181,1.0,-999.0,47,-99.99,,,-99.99,custom,2013-02-14 21:51:00,
2013-02-14 16:56:00,41.7,25.2,29.95,SSE,151,1.0,-999.0,51,-99.99,,,-99.99,custom,2013-02-14 21:56:00,
2013-02-14 17:01:00,41.0,24.4,29.92,South,182,1.0,-999.0,51,-99.99,,,-99.99,custom,2013-02-14 22:01:00,
2013-02-14 17:06:00,40.1,24.4,29.93,SSW,192,1.0,-999.0,52,-99.99,,,-99.99,custom,2013-02-14 22:06:00,
2013-02-14 17:11:00,40.1,25.5,29.93,SE,143,0.0,-999.0,55,-99.99,,,-99.99,custom,2013-02-14 22:11:00,
2013-02-14 17:16:00,39.7,24.8,29.94,South,169,1.0,-999.0,54,-99.99,,,-99.99,custom,2013-02-14 22:16:00,
2013-02-14 17:21:00,39.7,25.5,29.93,SE,131,1.0,-999.0,56,-99.99,,,-99.99,custom,2013-02-14 22:21:00,
2013-02-14 17:26:00,39.7,25.0,29.95,ESE,108,1.0,-999.0,55,-99.99,,,-99.99,custom,2013-02-14 22:26:00,
2013-02-14 17:31:00,39.4,25.9,29.95,SSE,163,0.0,-999.0,57,-99.99,,,-99.99,custom,2013-02-14 22:31:00,
2013-02-14 17:36:00,39.0,26.2,29.94,ESE,116,0.0,-999.0,59,-99.99,,,-99.99,custom,2013-02-14 22:36:00,
2013-02-14 17:41:00,38.8,26.2,29.94,East,83,0.0,-999.0,60,-99.99,,,-99.99,custom,2013-02-14 22:41:00,
2013-02-14 17:46:00,38.8,25.5,29.94,ESE,119,0.0,-999.0,58,-99.99,,,-99.99,custom,2013-02-14 22:46:00,
2013-02-14 17:51:00,37.8,26.2,29.96,West,263,0.0,-999.0,62,-99.99,,,-99.99,custom,2013-02-14 22:51:00,
2013-02-14 17:56:00,37.8,25.5,29.95,SE,146,0.0,-999.0,60,-99.99,,,-99.99,custom,2013-02-14 22:56:00,
2013-02-14 18:01:00,37.4,25.0,29.96,SSE,159,0.0,-999.0,60,-99.99,,,-99.99,custom,2013-02-14 23:01:00,
2013-02-14 18:06:00,36.9,24.3,29.97,ESE,104,0.0,-999.0,59,-99.99,,,-99.99,custom,2013-02-14 23:06:00,
2013-02-14 18:11:00,36.9,23.4,29.98,ESE,110,1.0,-999.0,57,-99.99,,,-99.99,custom,2013-02-14 23:11:00,
2013-02-14 18:16:00,36.9,24.4,30.01,ESE,117,1.0,-999.0,60,-99.99,,,-99.99,custom,2013-02-14 23:16:00,
2013-02-14 18:21:00,36.7,26.2,29.98,ESE,111,0.0,-999.0,65,-99.99,,,-99.99,custom,2013-02-14 23:21:00,
2013-02-14 18:26:00,36.5,25.0,29.99,ESE,106,0.0,-999.0,62,-99.99,,,-99.99,custom,2013-02-14 23:26:00,
2013-02-14 18:31:00,35.6,25.0,29.98,SSE,158,1.0,-999.0,64,-99.99,,,-99.99,custom,2013-02-14 23:31:00,
2013-02-14 18:36:00,34.9,22.8,29.98,SE,140,1.0,-999.0,60,-99.99,,,-99.99,custom,2013-02-14 23:36:00,
2013-02-14 18:41:00,34.2,24.1,29.96,South,173,1.0,-999.0,66,-99.99,,,-99.99,custom,2013-02-14 23:41:00,
2013-02-14 18:46:00,33.6,24.4,30.00,SE,140,0.0,-999.0,68,-99.99,,,-99.99,custom,2013-02-14 23:46:00,
2013-02-14 18:51:00,33.4,24.3,29.99,SSE,168,1.0,-999.0,68,-99.99,,,-99.99,custom,2013-02-14 23:51:00,
2013-02-14 18:56:00,33.4,24.4,29.97,SSE,167,0.0,-999.0,68,-99.99,,,-99.99,custom,2013-02-14 23:56:00,
2013-02-14 19:01:00,32.9,25.7,29.97,South,185,0.0,-999.0,74,-99.99,,,-99.99,custom,2013-02-15 00:01:00,
2013-02-14 19:06:00,32.9,23.4,29.99,ESE,112,1.0,-999.0,67,-99.99,,,-99.99,custom,2013-02-15 00:06:00,
2013-02-14 19:11:00,33.1,25.2,30.02,SE,131,0.0,-999.0,71,-99.99,,,-99.99,custom,2013-02-15 00:11:00,
2013-02-14 19:16:00,33.4,23.9,29.96,ESE,113,1.0,-999.0,67,-99.99,,,-99.99,custom,2013-02-15 00:16:00,
2013-02-14 19:21:00,33.4,25.5,30.04,SSE,153,1.0,-999.0,72,-99.99,,,-99.99,custom,2013-02-15 00:21:00,
2013-02-14 19:26:00,33.3,25.9,29.98,ESE,104,0.0,-999.0,73,-99.99,,,-99.99,custom,2013-02-15 00:26:00,
2013-02-14 19:31:00,33.1,25.3,30.01,ESE,106,1.0,-999.0,72,-99.99,,,-99.99,custom,2013-02-15 00:31:00,
2013-02-14 19:36:00,32.5,28.9,29.98,North,353,0.0,-999.0,86,-99.99,,,-99.99,custom,2013-02-15 00:36:00,
2013-02-14 19:41:00,31.5,27.3,29.99,SSW,204,0.0,-999.0,84,-99.99,,,-99.99,custom,2013-02-15 00:41:00,
2013-02-14 19:46:00,31.5,25.2,29.99,North,357,0.0,-999.0,77,-99.99,,,-99.99,custom,2013-02-15 00:46:00,
2013-02-14 19:51:00,32.0,27.3,30.01,SE,146,1.0,-999.0,82,-99.99,,,-99.99,custom,2013-02-15 00:51:00,
2013-02-14 19:56:00,32.0,25.5,29.99,ESE,123,0.0,-999.0,76,-99.99,,,-99.99,custom,2013-02-15 00:56:00,
2013-02-14 20:01:00,32.0,22.6,29.98,ESE,104,2.0,-999.0,67,-99.99,,,-99.99,custom,2013-02-15 01:01:00,
2013-02-14 20:06:00,32.4,23.2,30.01,South,173,1.0,-999.0,68,-99.99,,,-99.99,custom,2013-02-15 01:06:00,
2013-02-14 20:11:00,32.5,22.1,30.02,SSE,168,2.0,-999.0,64,-99.99,,,-99.99,custom,2013-02-15 01:11:00,
2013-02-14 20:16:00,32.0,23.7,30.00,SSW,205,2.0,-999.0,70,-99.99,,,-99.99,custom,2013-02-15 01:16:00,
2013-02-14 20:21:00,32.2,22.8,30.01,South,183,1.0,-999.0,67,-99.99,,,-99.99,custom,2013-02-15 01:21:00,
2013-02-14 20:26:00,32.0,23.9,29.99,SSE,159,1.0,-999.0,71,-99.99,,,-99.99,custom,2013-02-15 01:26:00,
2013-02-14 20:31:00,32.0,24.4,29.97,South,169,0.0,-999.0,73,-99.99,,,-99.99,custom,2013-02-15 01:31:00,
2013-02-14 20:36:00,32.4,23.5,29.97,SSE,148,1.0,-999.0,69,-99.99,,,-99.99,custom,2013-02-15 01:36:00,
2013-02-14 20:41:00,32.2,24.3,29.97,South,187,1.0,-999.0,71,-99.99,,,-99.99,custom,2013-02-15 01:41:00,
2013-02-14 20:46:00,32.4,23.9,29.97,SSE,148,1.0,-999.0,70,-99.99,,,-99.99,custom,2013-02-15 01:46:00,
2013-02-14 20:51:00,32.4,24.3,29.98,SSE,157,1.0,-999.0,71,-99.99,,,-99.99,custom,2013-02-15 01:51:00,
2013-02-14 20:56:00,32.4,25.3,29.99,SSE,166,0.0,-999.0,74,-99.99,,,-99.99,custom,2013-02-15 01:56:00,
2013-02-14 21:01:00,32.2,24.3,30.01,SSE,156,1.0,-999.0,72,-99.99,,,-99.99,custom,2013-02-15 02:01:00,
2013-02-14 21:06:00,32.0,24.8,30.00,South,191,1.0,-999.0,74,-99.99,,,-99.99,custom,2013-02-15 02:06:00,
2013-02-14 21:11:00,31.6,23.4,30.00,South,189,1.0,-999.0,70,-99.99,,,-99.99,custom,2013-02-15 02:11:00,
2013-02-14 21:16:00,31.5,23.7,29.99,South,179,2.0,-999.0,72,-99.99,,,-99.99,custom,2013-02-15 02:16:00,
2013-02-14 21:21:00,31.1,23.4,30.04,SSW,196,2.0,-999.0,72,-99.99,,,-99.99,custom,2013-02-15 02:21:00,
2013-02-14 21:26:00,31.1,23.2,30.00,South,189,2.0,-999.0,71,-99.99,,,-99.99,custom,2013-02-15 02:26:00,
2013-02-14 21:31:00,31.1,23.4,30.01,SSW,195,3.0,-999.0,72,-99.99,,,-99.99,custom,2013-02-15 02:31:00,
2013-02-14 21:36:00,31.1,24.4,30.00,South,190,1.0,-999.0,75,-99.99,,,-99.99,custom,2013-02-15 02:36:00,
2013-02-14 21:41:00,30.9,23.5,30.01,South,180,2.0,-999.0,73,-99.99,,,-99.99,custom,2013-02-15 02:41:00,
2013-02-14 21:46:00,31.1,25.0,29.98,SE,141,1.0,-999.0,77,-99.99,,,-99.99,custom,2013-02-15 02:46:00,
2013-02-14 21:51:00,30.9,26.6,30.02,South,173,1.0,-999.0,83,-99.99,,,-99.99,custom,2013-02-15 02:51:00,
2013-02-14 21:56:00,30.4,24.1,30.04,South,188,1.0,-999.0,77,-99.99,,,-99.99,custom,2013-02-15 02:56:00,
2013-02-14 22:01:00,30.6,23.0,30.01,South,171,3.0,-999.0,72,-99.99,,,-99.99,custom,2013-02-15 03:01:00,
2013-02-14 22:06:00,30.2,24.6,30.03,SSE,161,2.0,-999.0,79,-99.99,,,-99.99,custom,2013-02-15 03:06:00,
2013-02-14 22:11:00,29.8,24.4,30.03,South,173,2.0,-999.0,79,-99.99,,,-99.99,custom,2013-02-15 03:11:00,
2013-02-14 22:16:00,29.8,23.4,30.03,SSW,210,3.0,-999.0,76,-99.99,,,-99.99,custom,2013-02-15 03:16:00,
2013-02-14 22:21:00,30.0,22.3,30.01,SSW,205,4.0,-999.0,72,-99.99,,,-99.99,custom,2013-02-15 03:21:00,
2013-02-14 22:26:00,29.8,22.3,30.01,SSW,208,3.0,-999.0,72,-99.99,,,-99.99,custom,2013-02-15 03:26:00,
2013-02-14 22:31:00,29.8,22.3,30.00,SW,214,4.0,-999.0,72,-99.99,,,-99.99,custom,2013-02-15 03:31:00,
2013-02-14 22:36:00,30.2,22.3,30.01,SW,218,3.0,-999.0,71,-99.99,,,-99.99,custom,2013-02-15 03:36:00,
2013-02-14 22:41:00,30.4,21.7,30.00,SSW,202,4.0,-999.0,69,-99.99,,,-99.99,custom,2013-02-15 03:41:00,
2013-02-14 22:46:00,30.4,22.1,29.99,SSW,206,4.0,-999.0,70,-99.99,,,-99.99,custom,2013-02-15 03:46:00,
2013-02-14 22:51:00,30.6,21.9,29.98,SSW,198,3.0,-999.0,69,-99.99,,,-99.99,custom,2013-02-15 03:51:00,
2013-02-14 22:56:00,30.6,22.3,30.00,SSW,212,3.0,-999.0,70,-99.99,,,-99.99,custom,2013-02-15 03:56:00,
2013-02-14 23:01:00,30.7,22.3,30.02,SSW,212,3.0,-999.0,70,-99.99,,,-99.99,custom,2013-02-15 04:01:00,
2013-02-14 23:06:00,30.9,23.2,30.03,SSW,194,1.0,-999.0,72,-99.99,,,-99.99,custom,2013-02-15 04:06:00,
2013-02-14 23:11:00,30.7,23.2,30.00,SSW,194,2.0,-999.0,73,-99.99,,,-99.99,custom,2013-02-15 04:11:00,
2013-02-14 23:16:00,30.9,22.3,29.99,SSW,210,3.0,-999.0,69,-99.99,,,-99.99,custom,2013-02-15 04:16:00,
2013-02-14 23:21:00,30.9,22.5,30.01,SSW,192,2.0,-999.0,70,-99.99,,,-99.99,custom,2013-02-15 04:21:00,
2013-02-14 23:26:00,31.1,24.1,30.01,South,179,1.0,-999.0,74,-99.99,,,-99.99,custom,2013-02-15 04:26:00,
2013-02-14 23:31:00,30.9,23.4,30.00,South,170,2.0,-999.0,73,-99.99,,,-99.99,custom,2013-02-15 04:31:00,
2013-02-14 23:36:00,31.3,23.5,30.00,South,180,3.0,-999.0,72,-99.99,,,-99.99,custom,2013-02-15 04:36:00,
2013-02-14 23:41:00,31.3,24.1,30.00,South,191,2.0,-999.0,74,-99.99,,,-99.99,custom,2013-02-15 04:41:00,
2013-02-14 23:46:00,31.3,24.4,30.00,SSW,196,1.0,-999.0,75,-99.99,,,-99.99,custom,2013-02-15 04:46:00,
2013-02-14 23:51:00,31.1,23.2,30.01,South,170,2.0,-999.0,72,-99.99,,,-99.99,custom,2013-02-15 04:51:00,
2013-02-14 23:56:00,30.6,24.3,30.01,South,187,2.0,-999.0,77,-99.99,,,-99.99,custom,2013-02-15 04:56:00,